[[{"header":{"parameterUnit":"m.s-1","parameterCategory":1,"la1":30.2991,"la2":30.254,"lo1":-89.0895,"lo2":-89.0444,"dy":0.0017,"dx":0.0017,"nx":28,"ny":28,"refTime":"2025-04-16T09:00:00:Z","depth":0,"parameterNumber":2,"parameterNumberName":"U-component_of_WINDS"},"data":[0,0,0,0,0,0,0,0,0,0,0,0,0,0,0,0,0,0,0,0,0,0,0,0,0,0,0,0,0,0,0,0,0,0,0,0,0,0,0,0,0,0,0,0,0,0,0,0,0,0,0,0,0,0,0,0,0,0,-2.5817,-2.5818,0,-2.5855,-2.5855,-2.5856,-2.5846,-2.5845,-2.5845,-2.5844,-2.5883,-2.5885,-2.5886,0,0,0,0,0,0,0,0,0,0,0,0,0,-2.5738,-2.5739,-2.5817,-2.5818,-2.5818,-2.5855,-2.5855,-2.5856,-2.5846,-2.5845,-2.5844,-2.5844,-2.5882,-2.5885,-2.5887,0,0,0,0,0,0,0,0,0,0,0,0,0,-2.5774,-2.574,-2.5817,-2.5818,-2.5818,-2.5855,-2.5855,-2.5856,-2.5846,-2.5845,-2.5844,-2.5843,-2.5882,-2.5884,-2.5887,-2.5925,0,0,-2.5895,-2.5896,0,0,0,0,0,0,0,0,-2.5772,-2.5776,-2.5817,-2.5818,-2.5818,-2.5845,-2.5842,-2.5879,-2.5847,-2.5836,-2.5844,-2.5843,-2.5871,-2.5875,-2.5884,-2.5927,-2.5929,-2.5895,-2.5897,-2.5898,-2.5898,0,0,0,0,0,0,0,-2.5769,-2.5775,-2.5832,-2.5818,-2.5818,-2.5816,-2.582,-2.5849,-2.5859,-2.5837,-2.5836,-2.584,-2.5871,-2.5882,-2.5885,-2.5929,-2.5895,-2.5897,-2.5899,-2.59,-2.6005,-2.6007,0,0,0,0,0,0,-2.5766,-2.5773,-2.5831,-2.5833,-2.5792,-2.5819,-2.5823,-2.5837,-2.5859,-2.5861,-2.5841,-2.584,-2.5878,-2.5882,-2.5886,-2.5932,-2.5898,-2.59,-2.5902,-2.6004,-2.6006,-2.6007,0,0,0,0,0,0,-2.5764,-2.5771,-2.5829,-2.5803,-2.581,-2.5821,-2.5837,-2.5839,-2.5849,-2.5863,-2.5864,-2.585,-2.5877,-2.5883,-2.5916,-2.5933,-2.5901,-2.5904,-2.6003,-2.6005,-2.6006,-2.6024,0,0,0,0,0,0,-2.5762,-2.5771,-2.5785,-2.5803,-2.5812,-2.5858,-2.5838,-2.584,-2.5853,-2.5852,-2.5871,-2.5873,-2.5877,-2.5912,-2.5918,-2.5936,-2.5906,-2.6001,-2.6004,-2.6006,-2.6022,-2.6026,-2.603,0,0,0,0,0,-2.5759,-2.5789,-2.5786,-2.5793,-2.583,-2.5859,-2.5863,-2.5866,-2.5855,-2.5869,-2.5878,-2.5873,-2.5931,-2.5915,-2.5922,-2.5941,-2.6,-2.6003,-2.6006,-2.602,-2.6025,-2.603,0,0,0,0,0,0,-2.5773,-2.5791,-2.5788,-2.5824,-2.584,-2.5857,-2.5875,-2.5872,-2.5892,-2.5889,-2.5893,-2.5897,-2.593,-2.594,-2.5922,-2.598,-2.5964,-2.5968,-2.5972,-2.5977,-2.5981,-2.5978,-2.5908,0,0,0,0,0,-2.578,-2.5802,-2.5817,-2.5847,-2.5855,-2.5864,-2.5877,-2.5878,-2.5894,-2.5901,-2.5912,-2.5929,-2.595,-2.5965,-2.5986,-2.6024,-2.6028,-2.6041,-2.6045,-2.6048,-2.6051,-2.6072,-2.6077,-2.6016,-2.6016,-2.6016,0,0,-2.5795,-2.5808,-2.5821,-2.585,-2.5863,-2.5885,-2.587,-2.5894,-2.5911,-2.5905,-2.5936,-2.5945,-2.5964,-2.5999,-2.6015,-2.6008,-2.6069,-2.6051,-2.6054,-2.6055,-2.6075,-2.6081,-2.6086,-2.6018,-2.6018,-2.6018,0,0,-2.5833,-2.5846,-2.5872,-2.5885,-2.5903,-2.5909,-2.5915,-2.5933,-2.5939,-2.597,-2.5966,-2.5986,-2.6024,-2.6037,-2.6049,-2.6093,-2.6088,-2.61,-2.6121,-2.6141,-2.6145,-2.615,-2.6164,-2.617,-2.6104,-2.6104,-2.6104,0,-2.585,-2.5883,-2.5886,-2.5911,-2.5924,-2.5919,-2.5946,-2.5958,-2.5983,-2.5992,-2.5983,-2.603,-2.6043,-2.6081,-2.6092,-2.6102,-2.6109,-2.6097,-2.6144,-2.6149,-2.6153,-2.6167,-2.6173,-2.6105,-2.6105,-2.6105,-2.6105,0,-2.5902,-2.5925,-2.5944,-2.5967,-2.5983,-2.6009,-2.6016,-2.6031,-2.6031,-2.6038,-2.607,-2.6085,-2.6108,-2.6118,-2.6118,-2.6156,-2.6151,-2.6143,-2.6127,-2.616,-2.6173,-2.6178,-2.6107,-2.6106,-2.6106,-2.6106,0,0,-2.5949,-2.5974,-2.5981,-2.5991,-2.6011,-2.603,-2.6055,-2.6078,-2.6091,-2.6109,-2.613,-2.6162,-2.6155,-2.6169,-2.6171,-2.6188,-2.6221,-2.6179,-2.6179,-2.6185,-2.6263,-2.6268,-2.6274,-2.6219,-2.622,-2.6221,-2.6261,0,-2.5988,-2.6032,-2.6036,-2.6076,-2.6098,-2.6094,-2.6117,-2.6132,-2.6139,-2.6159,-2.6167,-2.6189,-2.6179,-2.6187,-2.6204,-2.6214,-2.6237,-2.6211,-2.6238,-2.6239,-2.6232,-2.6281,-2.6286,-2.6323,-2.6267,-2.6268,-2.6268,0,-2.604,-2.6058,-2.61,-2.6117,-2.6127,-2.6146,-2.6168,-2.6186,-2.6204,-2.6208,-2.6223,-2.6223,-2.6249,-2.6233,-2.627,-2.6252,-2.6264,-2.627,-2.6272,-2.6273,-2.6255,-2.6283,-2.6336,-2.6341,-2.6277,-2.6276,-2.6275,0,-2.6068,-2.6104,-2.6134,-2.6143,-2.6164,-2.6178,-2.6188,-2.6204,-2.6217,-2.6236,-2.6245,-2.6267,-2.6279,-2.6296,-2.6302,-2.629,-2.6338,-2.6322,-2.6342,-2.6341,-2.6351,-2.635,-2.6405,-2.6361,-2.6361,-2.636,-2.636,0,-2.6111,-2.6137,-2.6147,-2.6165,-2.6193,-2.6198,-2.6226,-2.6235,-2.625,-2.627,-2.6269,-2.6288,-2.6295,-2.6315,-2.632,-2.6349,-2.6355,-2.6359,-2.6359,-2.6358,-2.6357,-2.6365,-2.6362,-2.6362,-2.6362,-2.6361,-2.6361,0,-2.6148,-2.6155,-2.6187,-2.6205,-2.621,-2.623,-2.6245,-2.6262,-2.627,-2.6295,-2.6301,-2.6313,-2.6336,-2.6344,-2.6373,-2.6377,-2.641,-2.6409,-2.6404,-2.6404,-2.6422,-2.642,-2.6483,-2.6491,-2.6442,-2.6443,-2.6443,0,-2.6174,-2.6193,-2.6213,-2.6226,-2.6236,-2.6257,-2.627,-2.6276,-2.629,-2.6312,-2.6327,-2.635,-2.6369,-2.6407,-2.6418,-2.644,-2.6439,-2.6459,-2.6442,-2.644,-2.6438,-2.6436,-2.6438,-2.6462,-2.6463,-2.6463,-2.6463,0,-2.622,-2.6222,-2.6242,-2.6262,-2.6278,-2.6295,-2.6311,-2.6322,-2.633,-2.6347,-2.637,-2.6385,-2.6414,-2.6437,-2.646,-2.647,-2.6468,-2.6469,-2.6474,-2.6472,-2.6468,-2.647,-2.6411,-2.6467,-2.6467,-2.6467,-2.6466,-2.6466,-2.6251,-2.6268,-2.6284,-2.6305,-2.6318,-2.6333,-2.635,-2.636,-2.638,-2.6403,-2.6406,-2.6431,-2.6449,-2.6478,-2.649,-2.651,-2.6504,-2.6512,-2.6514,-2.6516,-2.6517,-2.6466,-2.6514,-2.6514,-2.6514,-2.6514,-2.6514,0,-2.6296,-2.6306,-2.6326,-2.6348,-2.6365,-2.6362,-2.6379,-2.6394,-2.6416,-2.6432,-2.6451,-2.6478,-2.65,-2.6513,-2.6536,-2.655,-2.6549,-2.6555,-2.6554,-2.6556,-2.6521,-2.6514,-2.6555,-2.6555,-2.6555,-2.6555,-2.6555,-2.6555,-2.6321,-2.6349,-2.6353,-2.6388,-2.6398,-2.6423,-2.6433,-2.6447,-2.646,-2.649,-2.6508,-2.6517,-2.6532,-2.6555,-2.6576,-2.6579,-2.6587,-2.6593,-2.6596,-2.6563,-2.6558,-2.6554,-2.6547,-2.6595,-2.6595,-2.6629,-2.6629,-2.6629]},{"header":{"parameterUnit":"m.s-1","parameterCategory":1,"la1":30.2991,"la2":30.254,"lo1":-89.0895,"lo2":-89.0444,"dy":0.0017,"dx":0.0017,"nx":28,"ny":28,"refTime":"2025-04-16T09:00:00:Z","depth":0,"parameterNumber":3,"parameterNumberName":"V-component_of_WINDS"},"data":[0,0,0,0,0,0,0,0,0,0,0,0,0,0,0,0,0,0,0,0,0,0,0,0,0,0,0,0,0,0,0,0,0,0,0,0,0,0,0,0,0,0,0,0,0,0,0,0,0,0,0,0,0,0,0,0,0,0,5.4195,5.4195,0,5.4219,5.4219,5.4219,5.4156,5.4154,5.4152,5.415,5.4171,5.4174,5.4176,0,0,0,0,0,0,0,0,0,0,0,0,0,5.409,5.4092,5.4195,5.4195,5.4195,5.4219,5.4219,5.4219,5.4156,5.4154,5.4151,5.4149,5.417,5.4173,5.4176,0,0,0,0,0,0,0,0,0,0,0,0,0,5.4127,5.4093,5.4195,5.4167,5.4164,5.4219,5.4219,5.422,5.4157,5.4154,5.4151,5.4148,5.4169,5.4173,5.4177,5.4258,0,0,5.4188,5.4189,0,0,0,0,0,0,0,0,5.4125,5.4131,5.417,5.4169,5.4166,5.4181,5.419,5.4232,5.4157,5.4159,5.415,5.4146,5.4177,5.418,5.4191,5.4259,5.426,5.4188,5.419,5.4192,5.4193,0,0,0,0,0,0,0,5.4122,5.4129,5.4204,5.4171,5.4168,5.4152,5.4154,5.4198,5.4184,5.4159,5.4154,5.4158,5.4175,5.4187,5.4191,5.426,5.4188,5.4191,5.4193,5.4195,5.4397,5.44,0,0,0,0,0,0,5.4124,5.4128,5.4203,5.4205,5.4138,5.4156,5.4158,5.4179,5.4184,5.4182,5.4161,5.4155,5.4182,5.4186,5.4191,5.4286,5.4192,5.4195,5.4197,5.4394,5.4398,5.4401,0,0,0,0,0,0,5.4122,5.4131,5.4202,5.4165,5.4173,5.4161,5.4185,5.4181,5.4193,5.4185,5.4182,5.4176,5.418,5.4186,5.4242,5.4286,5.4197,5.42,5.439,5.4395,5.4399,5.4478,0,0,0,0,0,0,5.4119,5.4131,5.4163,5.4166,5.4175,5.4254,5.4188,5.4184,5.42,5.4193,5.4199,5.4196,5.4178,5.4237,5.4246,5.429,5.4203,5.4386,5.4392,5.4398,5.4472,5.4485,5.4497,0,0,0,0,0,5.4116,5.4183,5.4165,5.4174,5.4215,5.4257,5.4262,5.4241,5.4204,5.4235,5.423,5.4196,5.428,5.4243,5.4253,5.4298,5.4383,5.439,5.4397,5.4466,5.4483,5.4497,0,0,0,0,0,0,5.4184,5.4183,5.4162,5.4234,5.4246,5.4246,5.4285,5.4259,5.4281,5.4273,5.4245,5.4246,5.4308,5.4309,5.4267,5.4377,5.4325,5.4335,5.4374,5.439,5.4402,5.44,5.4206,0,0,0,0,0,5.4207,5.4243,5.424,5.4303,5.431,5.4297,5.4314,5.4297,5.4308,5.4313,5.4311,5.4323,5.4351,5.4371,5.4397,5.4472,5.4472,5.4508,5.452,5.4531,5.4539,5.4578,5.4594,5.4425,5.4425,5.4425,0,0,5.4256,5.426,5.4284,5.4317,5.4324,5.436,5.4301,5.4342,5.4369,5.4318,5.4372,5.4371,5.4382,5.4448,5.4477,5.445,5.4586,5.454,5.4548,5.4551,5.4587,5.4603,5.4617,5.443,5.4429,5.4428,0,0,5.4362,5.437,5.4422,5.4432,5.4444,5.4435,5.4448,5.4452,5.445,5.4504,5.4467,5.4497,5.4548,5.4557,5.4568,5.4679,5.4648,5.4688,5.4753,5.4792,5.4805,5.4817,5.4855,5.487,5.4696,5.4697,5.4697,0,5.442,5.4475,5.4453,5.4496,5.4512,5.447,5.4522,5.4532,5.4552,5.4563,5.4534,5.4596,5.46,5.4667,5.4695,5.4705,5.4718,5.4687,5.4805,5.4817,5.4827,5.4864,5.4878,5.4701,5.4701,5.47,5.47,0,5.4545,5.4583,5.4625,5.4647,5.4666,5.4714,5.4699,5.4721,5.4702,5.4696,5.475,5.4754,5.478,5.4795,5.4777,5.486,5.4843,5.481,5.4757,5.4848,5.4882,5.4896,5.4708,5.4706,5.4705,5.4704,0,0,5.4694,5.4704,5.4719,5.4729,5.474,5.4769,5.4815,5.4841,5.4861,5.4876,5.4913,5.4957,5.4927,5.494,5.4922,5.4956,5.5043,5.4919,5.4918,5.4941,5.5134,5.5158,5.5174,5.5023,5.5026,5.5028,5.5132,0,5.4799,5.4879,5.486,5.4939,5.4973,5.4934,5.4974,5.4985,5.498,5.5008,5.5002,5.5034,5.4992,5.4999,5.5031,5.5026,5.5081,5.5018,5.5056,5.5058,5.5054,5.5192,5.5218,5.5316,5.5146,5.5148,5.5149,0,5.4931,5.4953,5.5036,5.5041,5.5055,5.5091,5.5114,5.5142,5.5153,5.5147,5.5162,5.5138,5.5182,5.513,5.519,5.5147,5.5162,5.5162,5.5165,5.5167,5.5108,5.5197,5.5347,5.5361,5.517,5.5169,5.5167,0,5.5031,5.5081,5.5136,5.5146,5.5154,5.518,5.5185,5.5193,5.521,5.523,5.5241,5.5265,5.5278,5.5297,5.528,5.5244,5.5342,5.5289,5.5338,5.5338,5.5359,5.5358,5.5513,5.5371,5.5371,5.537,5.537,0,5.5149,5.52,5.5181,5.5215,5.5272,5.525,5.5306,5.5306,5.5314,5.5346,5.5313,5.5344,5.532,5.5349,5.5336,5.5387,5.5393,5.5389,5.5384,5.5391,5.5392,5.5399,5.5392,5.5374,5.5373,5.5373,5.5372,0,5.5269,5.5258,5.5316,5.532,5.5322,5.5363,5.5366,5.5397,5.539,5.5432,5.544,5.5429,5.5461,5.5446,5.548,5.5471,5.5537,5.5524,5.5533,5.5529,5.5579,5.5574,5.5743,5.5764,5.561,5.5611,5.5612,0,5.5345,5.5384,5.5392,5.5412,5.5419,5.5452,5.5469,5.5449,5.5469,5.5485,5.5514,5.5543,5.5566,5.5619,5.5613,5.5638,5.5625,5.5683,5.5628,5.5634,5.5625,5.5622,5.5625,5.5693,5.5695,5.5696,5.5697,0,5.548,5.5473,5.55,5.5526,5.5549,5.5568,5.5584,5.5602,5.5582,5.5606,5.5639,5.5656,5.5691,5.572,5.5742,5.5745,5.5718,5.5715,5.5727,5.5734,5.5738,5.5735,5.5562,5.5711,5.5709,5.5708,5.5708,5.5707,5.5579,5.5612,5.5623,5.5655,5.5665,5.5681,5.571,5.5708,5.5735,5.5763,5.5749,5.5787,5.5797,5.5824,5.5831,5.586,5.5837,5.5855,5.586,5.5864,5.587,5.5734,5.5864,5.5863,5.5863,5.5863,5.5862,0,5.5712,5.5717,5.5747,5.5771,5.5796,5.5769,5.5786,5.5808,5.5842,5.5854,5.5877,5.5915,5.5944,5.5941,5.5967,5.599,5.5978,5.5998,5.5995,5.5996,5.589,5.5876,5.6007,5.6007,5.6007,5.6007,5.6007,5.6007,5.5784,5.5838,5.5832,5.589,5.5895,5.5933,5.5945,5.5959,5.5968,5.6012,5.6036,5.6035,5.604,5.6066,5.6091,5.6089,5.61,5.6124,5.6117,5.6018,5.6004,5.599,5.5977,5.6126,5.6127,5.6221,5.6222,5.6222]}]]